Time,TemperatureF,DewpointF,PressureIn,WindDirection,WindDirectionDegrees,WindSpeedMPH,WindSpeedGustMPH,Humidity,HourlyPrecipIn,Conditions,Clouds,dailyrainin,SoftwareType,DateUTC
2013-09-13 00:09:00,66.0,53.0,29.64,SSW,213,0.0,0.0,63,0.00,,,-99.99,Weather View 32 v60,2013-09-13 07:09:00,
2013-09-13 00:14:00,65.8,53.3,29.64,SW,214,0.0,0.0,64,0.00,,,-99.99,Weather View 32 v60,2013-09-13 07:14:00,
2013-09-13 00:19:00,65.8,53.3,29.64,SSW,212,0.0,0.0,64,0.00,,,-99.99,Weather View 32 v60,2013-09-13 07:19:00,
2013-09-13 00:24:00,65.5,52.9,29.64,SW,214,0.0,0.0,64,0.00,,,-99.99,Weather View 32 v60,2013-09-13 07:24:00,
2013-09-13 00:29:00,65.5,53.4,29.64,SSW,213,0.0,0.0,65,0.00,,,-99.99,Weather View 32 v60,2013-09-13 07:29:00,
2013-09-13 00:34:00,65.3,53.2,29.64,SSW,212,0.0,0.0,65,0.00,,,-99.99,Weather View 32 v60,2013-09-13 07:34:00,
2013-09-13 00:44:00,65.1,53.4,29.64,SSW,213,0.0,0.0,66,0.00,,,-99.99,Weather View 32 v60,2013-09-13 07:44:00,
2013-09-13 00:49:00,64.9,53.3,29.64,SSW,212,0.0,0.0,66,0.00,,,-99.99,Weather View 32 v60,2013-09-13 07:49:00,
2013-09-13 00:54:00,64.8,53.5,29.64,SSW,213,0.0,0.0,67,0.00,,,-99.99,Weather View 32 v60,2013-09-13 07:54:00,
2013-09-13 00:59:00,64.8,53.5,29.64,SSW,212,0.0,0.0,67,0.00,,,-99.99,Weather View 32 v60,2013-09-13 07:59:00,
2013-09-13 01:04:00,64.6,53.3,29.64,SSW,212,0.0,0.0,67,0.00,,,-99.99,Weather View 32 v60,2013-09-13 08:04:00,
2013-09-13 01:14:00,64.2,53.4,29.64,SSW,213,0.0,0.0,68,0.00,,,-99.99,Weather View 32 v60,2013-09-13 08:14:00,
2013-09-13 01:19:00,64.2,53.8,29.64,SSW,213,0.0,0.0,69,0.00,,,-99.99,Weather View 32 v60,2013-09-13 08:19:00,
2013-09-13 01:24:00,64.0,53.6,29.64,SW,214,0.0,0.0,69,0.00,,,-99.99,Weather View 32 v60,2013-09-13 08:24:00,
2013-09-13 01:29:00,63.9,53.5,29.64,SSW,213,0.0,0.0,69,0.00,,,-99.99,Weather View 32 v60,2013-09-13 08:29:00,
2013-09-13 01:34:00,63.9,53.5,29.64,SSW,211,0.0,0.0,69,0.00,,,-99.99,Weather View 32 v60,2013-09-13 08:34:00,
2013-09-13 01:39:00,63.9,53.9,29.64,SSW,213,0.0,0.0,70,0.00,,,-99.99,Weather View 32 v60,2013-09-13 08:39:00,
2013-09-13 01:44:00,63.7,53.7,29.64,SSW,212,0.0,0.0,70,0.00,,,-99.99,Weather View 32 v60,2013-09-13 08:44:00,
2013-09-13 01:49:00,63.5,53.9,29.64,SSW,212,0.0,0.0,71,0.00,,,-99.99,Weather View 32 v60,2013-09-13 08:49:00,
2013-09-13 01:54:00,63.5,53.9,29.64,SW,214,0.0,0.0,71,0.00,,,-99.99,Weather View 32 v60,2013-09-13 08:54:00,
2013-09-13 02:04:00,63.1,53.6,29.64,SSW,213,0.0,0.0,71,0.00,,,-99.99,Weather View 32 v60,2013-09-13 09:04:00,
2013-09-13 02:09:00,63.1,53.9,29.64,SSW,213,0.0,0.0,72,0.00,,,-99.99,Weather View 32 v60,2013-09-13 09:09:00,
2013-09-13 02:14:00,63.0,53.8,29.64,SW,214,0.0,0.0,72,0.00,,,-99.99,Weather View 32 v60,2013-09-13 09:14:00,
2013-09-13 02:19:00,63.0,53.8,29.64,SSW,213,0.0,0.0,72,0.00,,,-99.99,Weather View 32 v60,2013-09-13 09:19:00,
2013-09-13 02:24:00,62.8,53.6,29.64,SSW,212,0.0,0.0,72,0.00,,,-99.99,Weather View 32 v60,2013-09-13 09:24:00,
2013-09-13 02:29:00,62.8,54.0,29.64,SSW,213,0.0,0.0,73,0.00,,,-99.99,Weather View 32 v60,2013-09-13 09:29:00,
2013-09-13 02:39:00,62.6,53.8,29.64,SSW,213,0.0,0.0,73,0.00,,,-99.99,Weather View 32 v60,2013-09-13 09:39:00,
2013-09-13 02:44:00,62.4,54.0,29.64,SW,214,0.0,0.0,74,0.00,,,-99.99,Weather View 32 v60,2013-09-13 09:44:00,
2013-09-13 02:49:00,62.4,54.0,29.64,SSW,213,0.0,0.0,74,0.00,,,-99.99,Weather View 32 v60,2013-09-13 09:49:00,
2013-09-13 02:54:00,62.2,53.8,29.64,SW,215,0.0,0.0,74,0.00,,,-99.99,Weather View 32 v60,2013-09-13 09:54:00,
2013-09-13 03:00:00,62.2,54.2,29.64,SSW,211,0.0,0.0,75,0.00,,,-99.99,Weather View 32 v60,2013-09-13 10:00:00,
2013-09-13 03:05:00,62.1,54.4,29.67,SW,214,0.0,0.0,76,0.00,,,-99.99,Weather View 32 v60,2013-09-13 10:05:00,
2013-09-13 03:10:00,61.9,54.2,29.67,SSW,213,0.0,0.0,76,0.00,,,-99.99,Weather View 32 v60,2013-09-13 10:10:00,
2013-09-13 03:24:00,61.9,54.2,29.67,SSW,213,0.0,0.0,76,0.00,,,-99.99,Weather View 32 v60,2013-09-13 10:24:00,
2013-09-13 03:29:00,61.7,54.4,29.67,SSW,213,0.0,0.0,77,0.00,,,-99.99,Weather View 32 v60,2013-09-13 10:29:00,
2013-09-13 03:34:00,61.7,54.4,29.67,SW,214,0.0,0.0,77,0.00,,,-99.99,Weather View 32 v60,2013-09-13 10:34:00,
2013-09-13 03:40:00,61.7,54.4,29.67,SSW,212,0.0,0.0,77,0.00,,,-99.99,Weather View 32 v60,2013-09-13 10:40:00,
2013-09-13 03:49:00,61.9,54.6,29.67,NW,304,2.0,4.0,77,0.00,,,-99.99,Weather View 32 v60,2013-09-13 10:49:00,
2013-09-13 03:59:00,61.9,53.8,29.67,NW,326,0.0,4.0,75,0.00,,,-99.99,Weather View 32 v60,2013-09-13 10:59:00,
2013-09-13 04:04:00,61.9,53.5,29.67,NW,314,0.0,4.0,74,0.00,,,-99.99,Weather View 32 v60,2013-09-13 11:04:00,
2013-09-13 04:09:00,61.9,53.1,29.67,NNW,327,0.0,4.0,73,0.00,,,-99.99,Weather View 32 v60,2013-09-13 11:09:00,
2013-09-13 04:14:00,61.7,52.9,29.67,NNW,327,0.0,4.0,73,0.00,,,-99.99,Weather View 32 v60,2013-09-13 11:14:00,
2013-09-13 04:19:00,61.7,52.9,29.67,North,353,0.0,4.0,73,0.00,,,-99.99,Weather View 32 v60,2013-09-13 11:19:00,
2013-09-13 04:24:00,61.5,52.8,29.67,NNW,328,0.0,4.0,73,0.00,,,-99.99,Weather View 32 v60,2013-09-13 11:24:00,
2013-09-13 04:29:00,61.3,52.6,29.67,NNW,343,3.0,4.0,73,0.00,,,-99.99,Weather View 32 v60,2013-09-13 11:29:00,
2013-09-13 04:34:00,61.3,53.0,29.67,NNW,343,0.0,4.0,74,0.00,,,-99.99,Weather View 32 v60,2013-09-13 11:34:00,
2013-09-13 04:39:00,61.3,53.0,29.67,NNW,343,0.0,4.0,74,0.00,,,-99.99,Weather View 32 v60,2013-09-13 11:39:00,
2013-09-13 04:49:00,61.3,54.0,29.67,NNW,332,0.0,5.0,77,0.00,,,-99.99,Weather View 32 v60,2013-09-13 11:49:00,
2013-09-13 04:54:00,61.5,54.2,29.67,North,9,3.0,5.0,77,0.00,,,-99.99,Weather View 32 v60,2013-09-13 11:54:00,
2013-09-13 04:59:00,61.5,54.2,29.67,NNW,339,2.0,5.0,77,0.00,,,-99.99,Weather View 32 v60,2013-09-13 11:59:00,
2013-09-13 05:04:00,61.7,54.4,29.67,NE,52,0.0,5.0,77,0.00,,,-99.99,Weather View 32 v60,2013-09-13 12:04:00,
2013-09-13 05:09:00,61.7,54.4,29.67,NE,42,3.0,5.0,77,0.00,,,-99.99,Weather View 32 v60,2013-09-13 12:09:00,
2013-09-13 05:14:00,61.7,54.4,29.67,NE,41,3.0,5.0,77,0.00,,,-99.99,Weather View 32 v60,2013-09-13 12:14:00,
2013-09-13 05:19:00,61.7,54.0,29.67,NNE,31,0.0,5.0,76,0.00,,,-99.99,Weather View 32 v60,2013-09-13 12:19:00,
2013-09-13 05:24:00,61.7,54.0,29.67,NE,56,0.0,5.0,76,0.00,,,-99.99,Weather View 32 v60,2013-09-13 12:24:00,
2013-09-13 05:29:00,61.7,54.0,29.67,WNW,301,3.0,5.0,76,0.00,,,-99.99,Weather View 32 v60,2013-09-13 12:29:00,
2013-09-13 05:39:00,61.7,54.0,29.67,NNE,29,0.0,5.0,76,0.00,,,-99.99,Weather View 32 v60,2013-09-13 12:39:00,
2013-09-13 05:44:00,61.7,54.0,29.67,NW,309,0.0,4.0,76,0.00,,,-99.99,Weather View 32 v60,2013-09-13 12:44:00,
2013-09-13 05:49:00,61.5,53.1,29.67,NW,326,3.0,4.0,74,0.00,,,-99.99,Weather View 32 v60,2013-09-13 12:49:00,
2013-09-13 05:54:00,61.3,52.6,29.67,ENE,63,0.0,4.0,73,0.00,,,-99.99,Weather View 32 v60,2013-09-13 12:54:00,
2013-09-13 05:59:00,61.3,52.6,29.67,NE,43,0.0,4.0,73,0.00,,,-99.99,Weather View 32 v60,2013-09-13 12:59:00,
2013-09-13 06:09:00,61.3,52.6,29.67,NW,309,0.0,4.0,73,0.00,,,-99.99,Weather View 32 v60,2013-09-13 13:09:00,
2013-09-13 06:14:00,61.3,52.2,29.67,North,353,0.0,4.0,72,0.00,,,-99.99,Weather View 32 v60,2013-09-13 13:14:00,
2013-09-13 06:19:00,61.3,52.2,29.67,NNE,32,0.0,4.0,72,0.00,,,-99.99,Weather View 32 v60,2013-09-13 13:19:00,
2013-09-13 06:24:00,61.3,52.2,29.67,NE,51,0.0,4.0,72,0.00,,,-99.99,Weather View 32 v60,2013-09-13 13:24:00,
2013-09-13 06:29:00,61.3,52.2,29.67,NE,51,0.0,4.0,72,0.00,,,-99.99,Weather View 32 v60,2013-09-13 13:29:00,
2013-09-13 06:34:00,61.3,52.2,29.67,NE,51,0.0,4.0,72,0.00,,,-99.99,Weather View 32 v60,2013-09-13 13:34:00,
2013-09-13 06:39:00,61.3,52.2,29.67,NE,43,0.0,5.0,72,0.00,,,-99.99,Weather View 32 v60,2013-09-13 13:39:00,
2013-09-13 06:49:00,61.3,52.2,29.67,WNW,303,3.0,5.0,72,0.00,,,-99.99,Weather View 32 v60,2013-09-13 13:49:00,
2013-09-13 06:54:00,61.3,52.2,29.67,ENE,58,2.0,5.0,72,0.00,,,-99.99,Weather View 32 v60,2013-09-13 13:54:00,
2013-09-13 06:59:00,61.3,52.2,29.67,ENE,58,2.0,5.0,72,0.00,,,-99.99,Weather View 32 v60,2013-09-13 13:59:00,
2013-09-13 07:04:00,61.3,51.8,29.67,NW,325,0.0,5.0,71,0.00,,,-99.99,Weather View 32 v60,2013-09-13 14:04:00,
2013-09-13 07:09:00,61.3,51.8,29.67,NE,39,2.0,5.0,71,0.00,,,-99.99,Weather View 32 v60,2013-09-13 14:09:00,
2013-09-13 07:14:00,61.3,51.8,29.67,NE,56,3.0,5.0,71,0.00,,,-99.99,Weather View 32 v60,2013-09-13 14:14:00,
2013-09-13 07:19:00,61.3,51.8,29.67,NNE,15,2.0,5.0,71,0.00,,,-99.99,Weather View 32 v60,2013-09-13 14:19:00,
2013-09-13 07:24:00,61.5,52.0,29.67,NE,34,2.0,5.0,71,0.00,,,-99.99,Weather View 32 v60,2013-09-13 14:24:00,
2013-09-13 07:29:00,61.5,51.6,29.67,WNW,297,0.0,5.0,70,0.00,,,-99.99,Weather View 32 v60,2013-09-13 14:29:00,
2013-09-13 07:39:00,61.5,51.6,29.67,NE,52,4.0,5.0,70,0.00,,,-99.99,Weather View 32 v60,2013-09-13 14:39:00,
2013-09-13 07:49:00,61.5,51.6,29.67,WNW,282,0.0,4.0,70,0.00,,,-99.99,Weather View 32 v60,2013-09-13 14:49:00,
2013-09-13 07:54:00,61.5,52.0,29.67,NE,39,0.0,4.0,71,0.00,,,-99.99,Weather View 32 v60,2013-09-13 14:54:00,
2013-09-13 07:59:00,61.5,51.6,29.67,NE,38,0.0,4.0,70,0.00,,,-99.99,Weather View 32 v60,2013-09-13 14:59:00,
2013-09-13 08:04:00,61.7,51.8,29.67,NW,309,0.0,4.0,70,0.00,,,-99.99,Weather View 32 v60,2013-09-13 15:04:00,
2013-09-13 08:14:00,61.7,51.8,29.67,ENE,74,0.0,4.0,70,0.00,,,-99.99,Weather View 32 v60,2013-09-13 15:14:00,
2013-09-13 08:19:00,61.7,51.8,29.67,ENE,74,0.0,4.0,70,0.00,,,-99.99,Weather View 32 v60,2013-09-13 15:19:00,
2013-09-13 08:24:00,61.9,52.0,29.67,ENE,76,0.0,4.0,70,0.00,,,-99.99,Weather View 32 v60,2013-09-13 15:24:00,
2013-09-13 08:29:00,61.9,52.0,29.67,ENE,74,0.0,4.0,70,0.00,,,-99.99,Weather View 32 v60,2013-09-13 15:29:00,
2013-09-13 08:34:00,62.1,52.1,29.67,ENE,74,0.0,4.0,70,0.00,,,-99.99,Weather View 32 v60,2013-09-13 15:34:00,
2013-09-13 08:39:00,62.1,51.7,29.67,NW,324,0.0,4.0,69,0.00,,,-99.99,Weather View 32 v60,2013-09-13 15:39:00,
2013-09-13 08:49:00,62.2,51.5,29.67,NW,325,2.0,3.0,68,0.00,,,-99.99,Weather View 32 v60,2013-09-13 15:49:00,
2013-09-13 08:54:00,62.2,51.5,29.67,NW,325,0.0,3.0,68,0.00,,,-99.99,Weather View 32 v60,2013-09-13 15:54:00,
2013-09-13 08:59:00,62.2,51.1,29.67,NW,322,4.0,4.0,67,0.00,,,-99.99,Weather View 32 v60,2013-09-13 15:59:00,
2013-09-13 09:04:00,62.4,51.3,29.67,NW,323,0.0,4.0,67,0.00,,,-99.99,Weather View 32 v60,2013-09-13 16:04:00,
2013-09-13 09:09:00,62.4,51.3,29.67,NW,324,0.0,4.0,67,0.00,,,-99.99,Weather View 32 v60,2013-09-13 16:09:00,
2013-09-13 09:14:00,62.6,51.5,29.67,NW,323,0.0,4.0,67,0.00,,,-99.99,Weather View 32 v60,2013-09-13 16:14:00,
2013-09-13 09:19:00,62.6,51.1,29.67,NW,323,0.0,4.0,66,0.00,,,-99.99,Weather View 32 v60,2013-09-13 16:19:00,
2013-09-13 09:29:00,63.0,51.0,29.67,NW,324,0.0,4.0,65,0.00,,,-99.99,Weather View 32 v60,2013-09-13 16:29:00,
2013-09-13 09:34:00,63.1,51.2,29.67,NW,322,0.0,4.0,65,0.00,,,-99.99,Weather View 32 v60,2013-09-13 16:34:00,
2013-09-13 09:39:00,63.1,50.7,29.67,NW,324,0.0,4.0,64,0.00,,,-99.99,Weather View 32 v60,2013-09-13 16:39:00,
2013-09-13 09:44:00,63.3,50.9,29.67,NW,325,0.0,4.0,64,0.00,,,-99.99,Weather View 32 v60,2013-09-13 16:44:00,
2013-09-13 09:54:00,63.3,49.2,29.67,NW,323,3.0,4.0,60,0.00,,,-99.99,Weather View 32 v60,2013-09-13 16:54:00,
2013-09-13 09:59:00,63.3,49.2,29.67,NW,322,0.0,4.0,60,0.00,,,-99.99,Weather View 32 v60,2013-09-13 16:59:00,
2013-09-13 10:04:00,63.5,49.3,29.67,NE,55,3.0,3.0,60,0.00,,,-99.99,Weather View 32 v60,2013-09-13 17:04:00,
2013-09-13 10:09:00,63.7,49.0,29.67,SE,141,3.0,4.0,59,0.00,,,-99.99,Weather View 32 v60,2013-09-13 17:09:00,
2013-09-13 10:14:00,63.7,48.6,29.67,SE,139,0.0,4.0,58,0.00,,,-99.99,Weather View 32 v60,2013-09-13 17:14:00,
2013-09-13 10:19:00,63.7,48.6,29.67,ESE,109,0.0,4.0,58,0.00,,,-99.99,Weather View 32 v60,2013-09-13 17:19:00,
2013-09-13 10:24:00,64.0,48.9,29.67,ESE,109,0.0,4.0,58,0.00,,,-99.99,Weather View 32 v60,2013-09-13 17:24:00,
2013-09-13 10:34:00,64.4,47.8,29.67,ESE,108,3.0,4.0,55,0.00,,,-99.99,Weather View 32 v60,2013-09-13 17:34:00,
2013-09-13 10:39:00,64.4,47.3,29.67,NW,310,3.0,4.0,54,0.00,,,-99.99,Weather View 32 v60,2013-09-13 17:39:00,
2013-09-13 10:44:00,64.4,47.3,29.67,NE,45,0.0,4.0,54,0.00,,,-99.99,Weather View 32 v60,2013-09-13 17:44:00,
2013-09-13 10:49:00,64.4,47.8,29.67,East,80,3.0,4.0,55,0.00,,,-99.99,Weather View 32 v60,2013-09-13 17:49:00,
2013-09-13 10:54:00,64.6,47.5,29.67,ESE,111,0.0,4.0,54,0.00,,,-99.99,Weather View 32 v60,2013-09-13 17:54:00,
2013-09-13 10:59:00,64.6,48.0,29.67,ESE,109,0.0,4.0,55,0.00,,,-99.99,Weather View 32 v60,2013-09-13 17:59:00,
2013-09-13 11:09:00,64.9,46.8,29.67,ENE,59,0.0,4.0,52,0.00,,,-99.99,Weather View 32 v60,2013-09-13 18:09:00,
2013-09-13 11:14:00,65.1,47.5,29.67,ENE,68,3.0,4.0,53,0.00,,,-99.99,Weather View 32 v60,2013-09-13 18:14:00,
2013-09-13 11:19:00,65.1,47.0,29.67,East,94,3.0,4.0,52,0.00,,,-99.99,Weather View 32 v60,2013-09-13 18:19:00,
2013-09-13 11:24:00,65.3,47.7,29.67,East,93,0.0,4.0,53,0.00,,,-99.99,Weather View 32 v60,2013-09-13 18:24:00,
2013-09-13 11:29:00,65.5,47.3,29.67,SW,235,2.0,4.0,52,0.00,,,-99.99,Weather View 32 v60,2013-09-13 18:29:00,
2013-09-13 11:34:00,65.8,47.2,29.67,NE,35,3.0,4.0,51,0.00,,,-99.99,Weather View 32 v60,2013-09-13 18:34:00,
2013-09-13 11:45:00,66.2,46.4,29.67,North,357,0.0,4.0,49,0.00,,,-99.99,Weather View 32 v60,2013-09-13 18:45:00,
2013-09-13 11:54:00,66.4,46.6,29.64,SE,135,0.0,4.0,49,0.00,,,-99.99,Weather View 32 v60,2013-09-13 18:54:00,
2013-09-13 11:59:00,66.4,45.5,29.64,East,87,0.0,4.0,47,0.00,,,-99.99,Weather View 32 v60,2013-09-13 18:59:00,
2013-09-13 12:04:00,66.2,45.9,29.64,SE,125,3.0,4.0,48,0.00,,,-99.99,Weather View 32 v60,2013-09-13 19:04:00,
2013-09-13 12:09:00,66.2,46.4,29.64,ENE,61,0.0,4.0,49,0.00,,,-99.99,Weather View 32 v60,2013-09-13 19:09:00,
2013-09-13 12:14:00,66.6,46.2,29.64,ENE,60,0.0,4.0,48,0.00,,,-99.99,Weather View 32 v60,2013-09-13 19:14:00,
2013-09-13 12:19:00,66.7,45.8,29.64,West,262,0.0,4.0,47,0.00,,,-99.99,Weather View 32 v60,2013-09-13 19:19:00,
2013-09-13 12:29:00,67.1,46.1,29.64,North,353,0.0,4.0,47,0.00,,,-99.99,Weather View 32 v60,2013-09-13 19:29:00,
2013-09-13 12:34:00,67.3,45.7,29.64,NE,50,2.0,5.0,46,0.00,,,-99.99,Weather View 32 v60,2013-09-13 19:34:00,
2013-09-13 12:44:00,67.5,45.9,29.64,SE,129,0.0,5.0,46,0.00,,,-99.99,Weather View 32 v60,2013-09-13 19:44:00,
2013-09-13 12:49:00,67.8,46.2,29.64,WSW,251,0.0,5.0,46,0.00,,,-99.99,Weather View 32 v60,2013-09-13 19:49:00,
2013-09-13 12:54:00,68.4,46.1,29.64,WSW,251,0.0,5.0,45,0.00,,,-99.99,Weather View 32 v60,2013-09-13 19:54:00,
2013-09-13 13:04:00,68.9,45.4,29.64,WNW,298,3.0,5.0,43,0.00,,,-99.99,Weather View 32 v60,2013-09-13 20:04:00,
2013-09-13 13:09:00,69.3,45.7,29.64,West,271,0.0,5.0,43,0.00,,,-99.99,Weather View 32 v60,2013-09-13 20:09:00,
2013-09-13 13:14:00,69.6,45.4,29.64,NNE,12,3.0,5.0,42,0.00,,,-99.99,Weather View 32 v60,2013-09-13 20:14:00,
2013-09-13 13:19:00,69.6,45.4,29.64,West,270,3.0,5.0,42,0.00,,,-99.99,Weather View 32 v60,2013-09-13 20:19:00,
2013-09-13 13:24:00,70.2,45.9,29.64,West,264,2.0,5.0,42,0.00,,,-99.99,Weather View 32 v60,2013-09-13 20:24:00,
2013-09-13 13:29:00,70.7,44.5,29.64,NNW,337,2.0,5.0,39,0.00,,,-99.99,Weather View 32 v60,2013-09-13 20:29:00,
2013-09-13 13:34:00,70.3,44.1,29.64,NW,312,2.0,6.0,39,0.00,,,-99.99,Weather View 32 v60,2013-09-13 20:34:00,
2013-09-13 13:44:00,71.1,44.8,29.64,NNW,334,3.0,6.0,39,0.00,,,-99.99,Weather View 32 v60,2013-09-13 20:44:00,
2013-09-13 13:49:00,71.6,43.2,29.61,WNW,289,0.0,6.0,36,0.00,,,-99.99,Weather View 32 v60,2013-09-13 20:49:00,
2013-09-13 13:54:00,72.1,43.6,29.61,WNW,286,3.0,6.0,36,0.00,,,-99.99,Weather View 32 v60,2013-09-13 20:54:00,
2013-09-13 13:59:00,72.1,43.6,29.61,WNW,285,2.0,6.0,36,0.00,,,-99.99,Weather View 32 v60,2013-09-13 20:59:00,
2013-09-13 14:04:00,72.5,44.0,29.61,NE,53,3.0,6.0,36,0.00,,,-99.99,Weather View 32 v60,2013-09-13 21:04:00,
2013-09-13 14:09:00,72.5,43.2,29.61,NNE,32,4.0,6.0,35,0.00,,,-99.99,Weather View 32 v60,2013-09-13 21:09:00,
2013-09-13 14:19:00,72.3,43.8,29.61,SW,223,0.0,6.0,36,0.00,,,-99.99,Weather View 32 v60,2013-09-13 21:19:00,
2013-09-13 14:24:00,72.5,44.0,29.61,NNE,13,2.0,6.0,36,0.00,,,-99.99,Weather View 32 v60,2013-09-13 21:24:00,
2013-09-13 14:29:00,72.9,44.3,29.61,NNE,21,3.0,6.0,36,0.00,,,-99.99,Weather View 32 v60,2013-09-13 21:29:00,
2013-09-13 14:34:00,72.9,43.5,29.61,NNW,338,3.0,6.0,35,0.00,,,-99.99,Weather View 32 v60,2013-09-13 21:34:00,
2013-09-13 14:39:00,72.9,44.3,29.61,NNE,18,2.0,6.0,36,0.00,,,-99.99,Weather View 32 v60,2013-09-13 21:39:00,
2013-09-13 14:44:00,72.7,43.4,29.61,NW,324,3.0,6.0,35,0.00,,,-99.99,Weather View 32 v60,2013-09-13 21:44:00,
2013-09-13 14:54:00,73.0,43.7,29.61,NNE,15,2.0,6.0,35,0.00,,,-99.99,Weather View 32 v60,2013-09-13 21:54:00,
2013-09-13 14:59:00,73.4,43.2,29.61,NNE,26,4.0,6.0,34,0.00,,,-99.99,Weather View 32 v60,2013-09-13 21:59:00,
2013-09-13 15:04:00,73.6,43.4,29.61,NNE,32,4.0,6.0,34,0.00,,,-99.99,Weather View 32 v60,2013-09-13 22:04:00,
2013-09-13 15:09:00,73.6,43.4,29.61,NW,317,3.0,6.0,34,0.00,,,-99.99,Weather View 32 v60,2013-09-13 22:09:00,
2013-09-13 15:14:00,73.6,43.4,29.61,NE,56,3.0,6.0,34,0.00,,,-99.99,Weather View 32 v60,2013-09-13 22:14:00,
2013-09-13 15:24:00,73.9,43.7,29.61,NNW,328,4.0,6.0,34,0.00,,,-99.99,Weather View 32 v60,2013-09-13 22:24:00,
2013-09-13 15:29:00,73.9,43.7,29.61,NW,322,3.0,6.0,34,0.00,,,-99.99,Weather View 32 v60,2013-09-13 22:29:00,
2013-09-13 15:34:00,73.6,43.4,29.58,North,353,3.0,6.0,34,0.00,,,-99.99,Weather View 32 v60,2013-09-13 22:34:00,
2013-09-13 15:39:00,73.4,43.2,29.58,NW,319,3.0,6.0,34,0.00,,,-99.99,Weather View 32 v60,2013-09-13 22:39:00,
2013-09-13 15:44:00,73.0,43.7,29.58,SW,219,0.0,6.0,35,0.00,,,-99.99,Weather View 32 v60,2013-09-13 22:44:00,
2013-09-13 15:54:00,73.4,44.0,29.58,West,273,3.0,6.0,35,0.00,,,-99.99,Weather View 32 v60,2013-09-13 22:54:00,
2013-09-13 15:59:00,73.4,44.0,29.58,NNE,28,3.0,6.0,35,0.00,,,-99.99,Weather View 32 v60,2013-09-13 22:59:00,
2013-09-13 16:04:00,73.4,44.0,29.58,ENE,61,0.0,6.0,35,0.00,,,-99.99,Weather View 32 v60,2013-09-13 23:04:00,
2013-09-13 16:09:00,73.4,44.0,29.58,NE,38,4.0,6.0,35,0.00,,,-99.99,Weather View 32 v60,2013-09-13 23:09:00,
2013-09-13 16:14:00,73.8,44.3,29.58,NNE,33,4.0,6.0,35,0.00,,,-99.99,Weather View 32 v60,2013-09-13 23:14:00,
2013-09-13 16:24:00,73.8,43.6,29.58,NE,39,3.0,6.0,34,0.00,,,-99.99,Weather View 32 v60,2013-09-13 23:24:00,
2013-09-13 16:29:00,73.9,43.7,29.58,NW,325,3.0,6.0,34,0.00,,,-99.99,Weather View 32 v60,2013-09-13 23:29:00,
2013-09-13 16:34:00,73.9,43.7,29.58,North,0,4.0,6.0,34,0.00,,,-99.99,Weather View 32 v60,2013-09-13 23:34:00,
2013-09-13 16:39:00,73.8,43.6,29.58,WNW,301,3.0,6.0,34,0.00,,,-99.99,Weather View 32 v60,2013-09-13 23:39:00,
2013-09-13 16:44:00,73.4,43.2,29.58,ENE,65,3.0,6.0,34,0.00,,,-99.99,Weather View 32 v60,2013-09-13 23:44:00,
2013-09-13 16:49:00,73.4,43.2,29.58,NNE,21,3.0,6.0,34,0.00,,,-99.99,Weather View 32 v60,2013-09-13 23:49:00,
2013-09-13 16:54:00,73.6,43.4,29.58,NNW,327,3.0,6.0,34,0.00,,,-99.99,Weather View 32 v60,2013-09-13 23:54:00,
2013-09-13 16:59:00,73.6,43.4,29.58,NW,311,3.0,6.0,34,0.00,,,-99.99,Weather View 32 v60,2013-09-13 23:59:00,
2013-09-13 17:04:00,73.6,43.4,29.55,NW,305,3.0,6.0,34,0.00,,,-99.99,Weather View 32 v60,2013-09-14 00:04:00,
2013-09-13 17:14:00,73.6,43.4,29.55,WSW,245,2.0,5.0,34,0.00,,,-99.99,Weather View 32 v60,2013-09-14 00:14:00,
2013-09-13 17:19:00,73.6,43.4,29.55,NNW,338,2.0,5.0,34,0.00,,,-99.99,Weather View 32 v60,2013-09-14 00:19:00,
2013-09-13 17:24:00,73.6,43.4,29.55,NNE,33,3.0,5.0,34,0.00,,,-99.99,Weather View 32 v60,2013-09-14 00:24:00,
2013-09-13 17:29:00,73.6,43.4,29.55,NE,45,0.0,5.0,34,0.00,,,-99.99,Weather View 32 v60,2013-09-14 00:29:00,
2013-09-13 17:34:00,73.8,43.6,29.55,WNW,297,3.0,5.0,34,0.00,,,-99.99,Weather View 32 v60,2013-09-14 00:34:00,
2013-09-13 17:39:00,73.8,43.6,29.55,NNW,327,2.0,5.0,34,0.00,,,-99.99,Weather View 32 v60,2013-09-14 00:39:00,
2013-09-13 17:44:00,73.9,43.7,29.55,North,353,3.0,4.0,34,0.00,,,-99.99,Weather View 32 v60,2013-09-14 00:44:00,
2013-09-13 17:49:00,74.1,43.9,29.55,NW,321,2.0,4.0,34,0.00,,,-99.99,Weather View 32 v60,2013-09-14 00:49:00,
2013-09-13 17:59:00,74.3,43.3,29.55,NNE,27,0.0,4.0,33,0.00,,,-99.99,Weather View 32 v60,2013-09-14 00:59:00,
2013-09-13 18:04:00,74.3,43.3,29.55,NNE,25,0.0,4.0,33,0.00,,,-99.99,Weather View 32 v60,2013-09-14 01:04:00,
2013-09-13 18:09:00,74.3,44.0,29.55,NE,46,3.0,4.0,34,0.00,,,-99.99,Weather View 32 v60,2013-09-14 01:09:00,
2013-09-13 18:14:00,73.9,43.7,29.55,ENE,66,3.0,4.0,34,0.00,,,-99.99,Weather View 32 v60,2013-09-14 01:14:00,
2013-09-13 18:19:00,73.6,43.4,29.55,NE,47,0.0,4.0,34,0.00,,,-99.99,Weather View 32 v60,2013-09-14 01:19:00,
2013-09-13 18:24:00,73.4,43.2,29.55,NE,45,0.0,4.0,34,0.00,,,-99.99,Weather View 32 v60,2013-09-14 01:24:00,
2013-09-13 18:29:00,73.0,43.7,29.55,NE,53,2.0,4.0,35,0.00,,,-99.99,Weather View 32 v60,2013-09-14 01:29:00,
2013-09-13 18:34:00,72.9,43.5,29.55,NW,308,2.0,4.0,35,0.00,,,-99.99,Weather View 32 v60,2013-09-14 01:34:00,
2013-09-13 18:44:00,72.3,43.8,29.55,NW,308,3.0,4.0,36,0.00,,,-99.99,Weather View 32 v60,2013-09-14 01:44:00,
2013-09-13 18:49:00,72.1,44.4,29.55,NW,308,2.0,4.0,37,0.00,,,-99.99,Weather View 32 v60,2013-09-14 01:49:00,
2013-09-13 18:59:00,71.8,44.7,29.55,NW,306,0.0,4.0,38,0.00,,,-99.99,Weather View 32 v60,2013-09-14 01:59:00,
2013-09-13 19:04:00,71.6,44.6,29.55,NW,307,0.0,4.0,38,0.00,,,-99.99,Weather View 32 v60,2013-09-14 02:04:00,
2013-09-13 19:09:00,71.4,45.1,29.55,North,353,0.0,4.0,39,0.00,,,-99.99,Weather View 32 v60,2013-09-14 02:09:00,
2013-09-13 19:14:00,71.2,45.6,29.55,North,353,0.0,4.0,40,0.00,,,-99.99,Weather View 32 v60,2013-09-14 02:14:00,
2013-09-13 19:19:00,70.9,45.9,29.55,North,353,0.0,4.0,41,0.00,,,-99.99,Weather View 32 v60,2013-09-14 02:19:00,
2013-09-13 19:24:00,70.5,46.3,29.55,North,353,0.0,4.0,42,0.00,,,-99.99,Weather View 32 v60,2013-09-14 02:24:00,
2013-09-13 19:29:00,70.3,46.7,29.55,NNE,20,0.0,4.0,43,0.00,,,-99.99,Weather View 32 v60,2013-09-14 02:29:00,
2013-09-13 19:34:00,70.2,46.6,29.55,ENE,61,2.0,4.0,43,0.00,,,-99.99,Weather View 32 v60,2013-09-14 02:34:00,
2013-09-13 19:39:00,69.6,46.7,29.55,WNW,298,2.0,4.0,44,0.00,,,-99.99,Weather View 32 v60,2013-09-14 02:39:00,
2013-09-13 19:49:00,69.1,46.2,29.55,NNE,20,4.0,5.0,44,0.00,,,-99.99,Weather View 32 v60,2013-09-14 02:49:00,
2013-09-13 19:54:00,68.7,45.9,29.55,NNE,26,0.0,5.0,44,0.00,,,-99.99,Weather View 32 v60,2013-09-14 02:54:00,
2013-09-13 19:59:00,68.4,46.1,29.55,NNE,31,3.0,5.0,45,0.00,,,-99.99,Weather View 32 v60,2013-09-14 02:59:00,
2013-09-13 20:04:00,68.0,46.4,29.55,NNE,21,2.0,5.0,46,0.00,,,-99.99,Weather View 32 v60,2013-09-14 03:04:00,
2013-09-13 20:09:00,67.6,46.6,29.55,ENE,62,0.0,5.0,47,0.00,,,-99.99,Weather View 32 v60,2013-09-14 03:09:00,
2013-09-13 20:14:00,67.5,47.0,29.55,ENE,74,0.0,5.0,48,0.00,,,-99.99,Weather View 32 v60,2013-09-14 03:14:00,
2013-09-13 20:19:00,67.1,46.7,29.55,NE,40,3.0,5.0,48,0.00,,,-99.99,Weather View 32 v60,2013-09-14 03:19:00,
2013-09-13 20:24:00,66.9,47.6,29.55,North,353,3.0,5.0,50,0.00,,,-99.99,Weather View 32 v60,2013-09-14 03:24:00,
2013-09-13 20:34:00,66.4,47.7,29.55,NNW,346,0.0,5.0,51,0.00,,,-99.99,Weather View 32 v60,2013-09-14 03:34:00,
2013-09-13 20:39:00,66.2,48.0,29.55,North,10,0.0,5.0,52,0.00,,,-99.99,Weather View 32 v60,2013-09-14 03:39:00,
2013-09-13 20:44:00,66.0,48.4,29.55,NW,320,2.0,5.0,53,0.00,,,-99.99,Weather View 32 v60,2013-09-14 03:44:00,
2013-09-13 20:49:00,65.8,48.7,29.58,NNE,22,0.0,5.0,54,0.00,,,-99.99,Weather View 32 v60,2013-09-14 03:49:00,
2013-09-13 20:54:00,65.7,49.0,29.58,North,349,3.0,5.0,55,0.00,,,-99.99,Weather View 32 v60,2013-09-14 03:54:00,
2013-09-13 20:59:00,65.5,49.3,29.58,NNE,21,3.0,5.0,56,0.00,,,-99.99,Weather View 32 v60,2013-09-14 03:59:00,
2013-09-13 21:04:00,65.3,49.6,29.58,NNE,33,2.0,5.0,57,0.00,,,-99.99,Weather View 32 v60,2013-09-14 04:04:00,
2013-09-13 21:09:00,65.1,49.9,29.58,North,2,3.0,5.0,58,0.00,,,-99.99,Weather View 32 v60,2013-09-14 04:09:00,
2013-09-13 21:14:00,64.9,50.2,29.58,NNW,340,0.0,5.0,59,0.00,,,-99.99,Weather View 32 v60,2013-09-14 04:14:00,
2013-09-13 21:24:00,64.6,50.8,29.58,NE,53,2.0,5.0,61,0.00,,,-99.99,Weather View 32 v60,2013-09-14 04:24:00,
2013-09-13 21:29:00,64.6,50.8,29.58,NW,318,3.0,5.0,61,0.00,,,-99.99,Weather View 32 v60,2013-09-14 04:29:00,
2013-09-13 21:34:00,64.4,50.6,29.58,North,0,2.0,4.0,61,0.00,,,-99.99,Weather View 32 v60,2013-09-14 04:34:00,
2013-09-13 21:39:00,64.2,50.9,29.58,North,0,0.0,4.0,62,0.00,,,-99.99,Weather View 32 v60,2013-09-14 04:39:00,
2013-09-13 21:44:00,64.2,51.3,29.58,ENE,60,0.0,4.0,63,0.00,,,-99.99,Weather View 32 v60,2013-09-14 04:44:00,
2013-09-13 21:49:00,64.0,51.2,29.58,NE,52,2.0,4.0,63,0.00,,,-99.99,Weather View 32 v60,2013-09-14 04:49:00,
2013-09-13 21:59:00,63.9,51.4,29.58,North,7,0.0,4.0,64,0.00,,,-99.99,Weather View 32 v60,2013-09-14 04:59:00,
2013-09-13 22:04:00,63.9,51.4,29.58,NNW,329,0.0,4.0,64,0.00,,,-99.99,Weather View 32 v60,2013-09-14 05:04:00,
2013-09-13 22:14:00,63.7,51.7,29.58,NNE,12,0.0,4.0,65,0.00,,,-99.99,Weather View 32 v60,2013-09-14 05:14:00,
2013-09-13 22:19:00,63.7,51.7,29.58,West,272,2.0,4.0,65,0.00,,,-99.99,Weather View 32 v60,2013-09-14 05:19:00,
2013-09-13 22:24:00,63.7,52.1,29.58,North,353,0.0,4.0,66,0.00,,,-99.99,Weather View 32 v60,2013-09-14 05:24:00,
2013-09-13 22:29:00,63.7,52.1,29.58,North,353,0.0,4.0,66,0.00,,,-99.99,Weather View 32 v60,2013-09-14 05:29:00,
2013-09-13 22:34:00,63.5,51.5,29.58,North,353,0.0,4.0,65,0.00,,,-99.99,Weather View 32 v60,2013-09-14 05:34:00,
2013-09-13 22:39:00,63.5,51.9,29.58,North,353,0.0,4.0,66,0.00,,,-99.99,Weather View 32 v60,2013-09-14 05:39:00,
2013-09-13 22:44:00,63.5,52.3,29.58,North,353,0.0,4.0,67,0.00,,,-99.99,Weather View 32 v60,2013-09-14 05:44:00,
2013-09-13 22:49:00,63.3,52.1,29.58,North,353,0.0,4.0,67,0.00,,,-99.99,Weather View 32 v60,2013-09-14 05:49:00,
2013-09-13 22:54:00,63.3,52.1,29.58,North,353,0.0,4.0,67,0.00,,,-99.99,Weather View 32 v60,2013-09-14 05:54:00,
2013-09-13 22:59:00,63.1,52.4,29.58,NNW,333,0.0,4.0,68,0.00,,,-99.99,Weather View 32 v60,2013-09-14 05:59:00,
2013-09-13 23:04:00,63.0,51.8,29.58,NNW,332,0.0,4.0,67,0.00,,,-99.99,Weather View 32 v60,2013-09-14 06:04:00,
2013-09-13 23:09:00,63.0,52.2,29.58,NNW,332,0.0,4.0,68,0.00,,,-99.99,Weather View 32 v60,2013-09-14 06:09:00,
2013-09-13 23:19:00,63.0,52.6,29.58,NNW,333,0.0,4.0,69,0.00,,,-99.99,Weather View 32 v60,2013-09-14 06:19:00,
2013-09-13 23:24:00,62.8,52.4,29.58,NNW,333,0.0,4.0,69,0.00,,,-99.99,Weather View 32 v60,2013-09-14 06:24:00,
2013-09-13 23:29:00,62.6,52.3,29.58,NNW,333,0.0,4.0,69,0.00,,,-99.99,Weather View 32 v60,2013-09-14 06:29:00,
2013-09-13 23:34:00,62.4,52.5,29.58,NNW,334,0.0,4.0,70,0.00,,,-99.99,Weather View 32 v60,2013-09-14 06:34:00,
2013-09-13 23:39:00,62.4,52.5,29.58,NNW,333,0.0,4.0,70,0.00,,,-99.99,Weather View 32 v60,2013-09-14 06:39:00,
2013-09-13 23:44:00,62.2,52.3,29.58,NNW,334,0.0,4.0,70,0.00,,,-99.99,Weather View 32 v60,2013-09-14 06:44:00,
2013-09-13 23:49:00,62.2,52.7,29.58,NNW,334,0.0,4.0,71,0.00,,,-99.99,Weather View 32 v60,2013-09-14 06:49:00,
2013-09-13 23:54:00,62.2,52.7,29.58,NNW,333,0.0,4.0,71,0.00,,,-99.99,Weather View 32 v60,2013-09-14 06:54:00,